Regional Weather Roundup
Issued by NWS

Home | Current Version | Previous Version | Text Only | Print | Product List | Glossary Off
Versions: 1 2 3 4 5 6 7 8 9 10 11 12 13 14 15 16 17 18 19 20 21 22 23 24 25 26 27 28 29 30 31 32 33 34 35 36 37 38 39 40 41 42 43 44 45 46 47 48 49 50

000
ASUS45 KCYS 282210
RWRWY

WYOMING REGIONAL WEATHER ROUNDUP
NATIONAL WEATHER SERVICE CHEYENNE WY
400 PM MDT THU MAY 28 2015

NOTE:  "FAIR" INDICATES FEW OR NO CLOUDS BELOW 12,000 FEET
WITH NO SIGNIFICANT WEATHER AND/OR OBSTRUCTIONS TO VISIBILITY.

WYZ001-282300-
YELLOWSTONE NATIONAL PARK

CITY           SKY/WX    TMP DP  RH WIND       PRES   REMARKS
LK YELLOWSTONE   N/A     42  37  82 CALM      30.23R
W YELLOWSTONE  NOT AVBL

$$
WYZ002>013-054>058-071-098>099-282300-
NORTHERN WYOMING

CITY           SKY/WX    TMP DP  RH WIND       PRES   REMARKS
JACKSON        PTSUNNY   57  43  58 SW7       30.15S
CODY           PTSUNNY   59  45  58 N13       30.08S
GREYBULL       FAIR      67  41  38 N7        30.02S
WORLAND        FAIR      62  45  53 N7        30.03F
SHERIDAN       PTSUNNY   63  44  50 NW14      30.04R
BUFFALO        CLOUDY    59  46  62 NW7       30.07S
GILLETTE       FAIR      61  48  62 NW10      30.02R
HULETT         RAIN      55  50  82 CALM      30.04R
NEWCASTLE      LGT RAIN  55  50  82 N16G24    29.97F

$$
WYZ014>020-022>026-101>103-282300-
CENTRAL WYOMING

CITY           SKY/WX    TMP DP  RH WIND       PRES   REMARKS
BIG PINEY      FAIR      53  37  54 VRB5      30.17F
PINEDALE       FAIR      50  37  62 SW12G20   30.16F
DUBOIS         FAIR      50  34  53 MISG      30.12S
LANDER         FAIR      62  38  40 SE3       30.02S
RIVERTON       LGT RAIN  60  48  64 N10       30.05F
CASPER         PTSUNNY   60  46  59 N18       30.03R
DOUGLAS        FAIR      65  46  50 N24G33    29.99R

$$
WYZ021-027>030-104>119-282300-
SOUTHERN WYOMING

CITY           SKY/WX    TMP DP  RH WIND       PRES   REMARKS
EVANSTON       LGT RAIN  46  39  76 N24       30.22R
KEMMERER       FAIR      46  36  66 W14G22    30.21F
FORT BRIDGER   TSTM      46  45  93 NW10      30.26R
ROCK SPRINGS   PTSUNNY   48  38  68 SW6       30.19S
DIXON          MOCLDY    54  39  56 SW5       30.18S
RAWLINS        FAIR      52  38  58 S26G39    30.13R
SARATOGA       RAIN      50  34  53 SW17G31   30.20R
LARAMIE        PTSUNNY   63  34  33 W17G26    30.09F
CHEYENNE       PTSUNNY   67  36  31 NW14G24   30.02F
TORRINGTON     FAIR      74  42  31 N7        29.93F
PINE BLUFFS    FAIR      70  43  37 N12G21    29.99F

$$


USA.gov is the U.S. government's official web portal to all federal, state and local government web resources and services.